SIA121 WMKK-WSSS

Flight info

Callsign SIA121
Flight time 0h 37m
Altitude 23000
Route RUSBU1D RUSBU Y511 TOPOR A464 ARAMA DCT TEBUN TEBUN1A
Aircraft A359/H-SDE2E3GHIJ3J4J5LM1ORWXY/LB1D1

Departure

Time 2026-05-04 20:21
Airport Kuala Lumpur International Airport (WMKK)

Arrival

Time 2026-05-04 20:59
Airport Singapore Changi Airport (WSSS)
Time Latitude Longitude Altitude Speed Heading
2026-05-04 19:59 2.73685 101.71220 55 ft 0 kts 146°
2026-05-04 20:13 2.73693 101.71214 70 ft 2 kts 144°
2026-05-04 20:13 2.73706 101.71205 78 ft 2 kts 144°
2026-05-04 20:14 2.73720 101.71195 49 ft 2 kts 143°
2026-05-04 20:14 2.73733 101.71185 55 ft 2 kts 141°
2026-05-04 20:14 2.73745 101.71174 55 ft 2 kts 137°
2026-05-04 20:14 2.73757 101.71163 55 ft 2 kts 129°
2026-05-04 20:15 2.73766 101.71149 55 ft 2 kts 105°
2026-05-04 20:15 2.73765 101.71134 55 ft 1 kts 62°
2026-05-04 20:15 2.73763 101.71130 55 ft 0 kts 57°
2026-05-04 20:16 2.73777 101.71151 55 ft 9 kts 55°
2026-05-04 20:16 2.73823 101.71217 57 ft 14 kts 56°
2026-05-04 20:17 2.73892 101.71301 57 ft 18 kts 48°
2026-05-04 20:17 2.73965 101.71411 55 ft 21 kts 58°
2026-05-04 20:17 2.74041 101.71531 55 ft 18 kts 57°
2026-05-04 20:17 2.74109 101.71629 56 ft 19 kts 52°
2026-05-04 20:18 2.74192 101.71749 60 ft 23 kts 56°
2026-05-04 20:18 2.74275 101.71871 56 ft 16 kts 53°
2026-05-04 20:18 2.74333 101.71954 55 ft 17 kts 57°
2026-05-04 20:18 2.74392 101.72043 56 ft 0 kts 56°
2026-05-04 20:19 2.74405 101.72063 55 ft 11 kts 56°
2026-05-04 20:19 2.74451 101.72131 55 ft 13 kts 56°
2026-05-04 20:19 2.74529 101.72174 58 ft 15 kts 349°
2026-05-04 20:19 2.74626 101.72129 56 ft 12 kts 347°
2026-05-04 20:20 2.74699 101.72171 57 ft 14 kts 50°
2026-05-04 20:20 2.74783 101.72235 58 ft 16 kts 358°
2026-05-04 20:20 2.74886 101.72170 54 ft 20 kts 325°
2026-05-04 20:20 2.75160 101.71985 58 ft 91 kts 326°
2026-05-04 20:21 2.75927 101.71472 57 ft 170 kts 326°
2026-05-04 20:21 2.76982 101.70760 804 ft 180 kts 326°
2026-05-04 20:21 2.79065 101.69381 2712 ft 190 kts 328°
2026-05-04 20:22 2.80306 101.68791 3417 ft 208 kts 338°
2026-05-04 20:22 2.81772 101.68245 3902 ft 241 kts 340°
2026-05-04 20:22 2.83434 101.67657 4563 ft 262 kts 340°
2026-05-04 20:22 2.85177 101.67037 5509 ft 269 kts 340°
2026-05-04 20:23 2.86963 101.66413 6516 ft 275 kts 342°
2026-05-04 20:23 2.88857 101.66064 7511 ft 280 kts 359°
2026-05-04 20:23 2.90790 101.66344 8603 ft 284 kts 19°
2026-05-04 20:23 2.92527 101.67296 9722 ft 288 kts 40°
2026-05-04 20:24 2.93845 101.68821 10602 ft 299 kts 59°
2026-05-04 20:24 2.94612 101.70839 11077 ft 324 kts 77°
2026-05-04 20:24 2.95251 101.73084 11582 ft 344 kts 73°
2026-05-04 20:24 2.95763 101.75452 12358 ft 353 kts 83°
2026-05-04 20:25 2.95735 101.77916 13228 ft 359 kts 98°
2026-05-04 20:25 2.95062 101.80333 14044 ft 364 kts 113°
2026-05-04 20:25 2.93752 101.82514 14838 ft 368 kts 128°
2026-05-04 20:25 2.91892 101.84282 15666 ft 372 kts 143°
2026-05-04 20:26 2.89594 101.85501 16444 ft 377 kts 159°
2026-05-04 20:26 2.87052 101.86219 17211 ft 382 kts 165°
2026-05-04 20:26 2.84449 101.86826 17950 ft 386 kts 164°
2026-05-04 20:26 2.81924 101.87759 18606 ft 388 kts 151°
2026-05-04 20:27 2.79712 101.89311 19212 ft 391 kts 138°
2026-05-04 20:27 2.77694 101.91152 19844 ft 395 kts 135°
2026-05-04 20:27 2.75687 101.93055 20497 ft 400 kts 135°
2026-05-04 20:27 2.73659 101.94980 21149 ft 404 kts 135°
2026-05-04 20:28 2.72300 101.96265 21591 ft 407 kts 135°
2026-05-04 20:28 2.69524 101.98884 22434 ft 413 kts 136°
2026-05-04 20:28 2.68137 102.00189 22709 ft 414 kts 136°
2026-05-04 20:28 2.65296 102.02863 22854 ft 430 kts 136°
2026-05-04 20:29 2.63833 102.04240 22856 ft 442 kts 136°
2026-05-04 20:29 2.61548 102.06388 22861 ft 457 kts 136°
2026-05-04 20:29 2.59208 102.08562 22858 ft 462 kts 137°
2026-05-04 20:29 2.56704 102.10580 22860 ft 463 kts 141°
2026-05-04 20:30 2.54124 102.12516 22860 ft 464 kts 142°
2026-05-04 20:30 2.51534 102.14441 22859 ft 464 kts 142°
2026-05-04 20:30 2.48947 102.16364 22859 ft 464 kts 142°
2026-05-04 20:30 2.46358 102.18293 22859 ft 464 kts 142°
2026-05-04 20:31 2.43777 102.20218 22867 ft 464 kts 142°
2026-05-04 20:31 2.41189 102.22148 22865 ft 464 kts 142°
2026-05-04 20:31 2.38607 102.24074 22862 ft 464 kts 142°
2026-05-04 20:31 2.36022 102.26003 22862 ft 464 kts 142°
2026-05-04 20:32 2.33435 102.27932 22862 ft 464 kts 142°
2026-05-04 20:32 2.30849 102.29863 22862 ft 464 kts 142°
2026-05-04 20:32 2.28266 102.31790 22862 ft 464 kts 142°
2026-05-04 20:32 2.25678 102.33721 22864 ft 464 kts 142°
2026-05-04 20:33 2.23095 102.35648 22864 ft 464 kts 142°
2026-05-04 20:33 2.20512 102.37575 22865 ft 464 kts 142°
2026-05-04 20:33 2.17924 102.39506 22864 ft 464 kts 142°
2026-05-04 20:33 2.15339 102.41434 22865 ft 464 kts 142°
2026-05-04 20:34 2.12754 102.43363 22864 ft 464 kts 142°
2026-05-04 20:34 2.10168 102.45292 22864 ft 464 kts 142°
2026-05-04 20:34 2.07584 102.47219 22862 ft 463 kts 142°
2026-05-04 20:34 2.04998 102.49148 22865 ft 463 kts 142°
2026-05-04 20:35 2.02521 102.51196 22862 ft 462 kts 134°
2026-05-04 20:35 2.00365 102.53578 22865 ft 461 kts 129°
2026-05-04 20:35 1.98369 102.56085 22864 ft 461 kts 126°
2026-05-04 20:35 1.96451 102.58654 22864 ft 461 kts 125°
2026-05-04 20:36 1.94587 102.61207 22862 ft 461 kts 125°
2026-05-04 20:36 1.92700 102.63795 22862 ft 461 kts 125°
2026-05-04 20:36 1.90802 102.66375 22862 ft 461 kts 126°
2026-05-04 20:36 1.88891 102.68948 22862 ft 461 kts 126°
2026-05-04 20:37 1.86970 102.71516 22862 ft 461 kts 126°
2026-05-04 20:37 1.85044 102.74077 22862 ft 461 kts 126°
2026-05-04 20:37 1.83114 102.76637 22862 ft 462 kts 126°
2026-05-04 20:37 1.81179 102.79201 22865 ft 462 kts 126°
2026-05-04 20:38 1.79246 102.81764 22862 ft 461 kts 126°
2026-05-04 20:38 1.77315 102.84325 22864 ft 461 kts 126°
2026-05-04 20:38 1.75384 102.86886 22865 ft 461 kts 126°
2026-05-04 20:38 1.73599 102.89541 22867 ft 460 kts 120°
2026-05-04 20:39 1.71992 102.92310 22865 ft 460 kts 118°
2026-05-04 20:39 1.70447 102.95111 22864 ft 460 kts 117°
2026-05-04 20:39 1.68936 102.97933 22864 ft 460 kts 117°
2026-05-04 20:39 1.67443 103.00758 22865 ft 460 kts 117°
2026-05-04 20:40 1.65951 103.03589 22867 ft 460 kts 117°
2026-05-04 20:40 1.64471 103.06391 22867 ft 460 kts 117°
2026-05-04 20:40 1.62814 103.09132 22867 ft 461 kts 125°
2026-05-04 20:40 1.60642 103.11509 22867 ft 463 kts 138°
2026-05-04 20:41 1.57955 103.13290 22870 ft 465 kts 152°
2026-05-04 20:41 1.54988 103.14601 22867 ft 466 kts 156°
2026-05-04 20:41 1.51971 103.15809 22867 ft 466 kts 157°
2026-05-04 20:41 1.48949 103.17005 22867 ft 466 kts 157°
2026-05-04 20:42 1.45976 103.18182 22865 ft 466 kts 157°
2026-05-04 20:42 1.42962 103.19379 22865 ft 466 kts 157°
2026-05-04 20:42 1.39947 103.20577 22864 ft 466 kts 157°
2026-05-04 20:42 1.36935 103.21775 22867 ft 466 kts 157°
2026-05-04 20:43 1.33919 103.22975 22866 ft 466 kts 157°
2026-05-04 20:43 1.30938 103.24160 22325 ft 456 kts 157°
2026-05-04 20:43 1.27992 103.25333 21246 ft 456 kts 157°
2026-05-04 20:43 1.25068 103.26554 20287 ft 454 kts 153°
2026-05-04 20:44 1.22305 103.28032 19441 ft 448 kts 149°
2026-05-04 20:44 1.19623 103.29579 18620 ft 443 kts 148°
2026-05-04 20:44 1.16977 103.31120 17765 ft 438 kts 148°
2026-05-04 20:44 1.14360 103.32641 16895 ft 432 kts 148°
2026-05-04 20:45 1.11782 103.34136 16076 ft 425 kts 149°
2026-05-04 20:45 1.09242 103.35608 15248 ft 419 kts 149°
2026-05-04 20:45 1.06737 103.37059 14468 ft 414 kts 149°
2026-05-04 20:45 1.04261 103.38492 13650 ft 409 kts 149°
2026-05-04 20:46 1.01815 103.39911 12768 ft 404 kts 149°
2026-05-04 20:46 0.99577 103.41555 11944 ft 397 kts 135°
2026-05-04 20:46 0.97984 103.43761 11134 ft 390 kts 115°
2026-05-04 20:46 0.97260 103.46332 10558 ft 380 kts 97°
2026-05-04 20:47 0.97024 103.48878 10431 ft 357 kts 95°
2026-05-04 20:47 0.96844 103.51279 10307 ft 336 kts 94°
2026-05-04 20:47 0.96674 103.53547 10177 ft 318 kts 95°
2026-05-04 20:47 0.96511 103.55688 10068 ft 302 kts 94°
2026-05-04 20:48 0.96538 103.57735 9939 ft 288 kts 84°
2026-05-04 20:48 0.96780 103.59687 9826 ft 278 kts 82°
2026-05-04 20:48 0.97049 103.61578 9697 ft 280 kts 82°
2026-05-04 20:48 0.97332 103.63568 9646 ft 294 kts 82°
2026-05-04 20:49 0.97615 103.65573 9247 ft 291 kts 82°
2026-05-04 20:49 0.97898 103.67588 8668 ft 294 kts 82°
2026-05-04 20:49 0.98181 103.69607 8208 ft 293 kts 82°
2026-05-04 20:49 0.98632 103.71579 7821 ft 291 kts 68°
2026-05-04 20:50 0.99583 103.73353 7437 ft 289 kts 57°
2026-05-04 20:50 1.00671 103.75039 7053 ft 288 kts 56°
2026-05-04 20:50 1.01763 103.76710 6677 ft 286 kts 56°
2026-05-04 20:50 1.02843 103.78373 6282 ft 285 kts 56°
2026-05-04 20:51 1.03914 103.80030 5877 ft 283 kts 57°
2026-05-04 20:51 1.04976 103.81679 5487 ft 281 kts 57°
2026-05-04 20:51 1.06026 103.83314 5121 ft 279 kts 56°
2026-05-04 20:51 1.07074 103.84944 4740 ft 278 kts 57°
2026-05-04 20:52 1.08116 103.86565 4368 ft 276 kts 57°
2026-05-04 20:52 1.09354 103.88008 4073 ft 273 kts 37°
2026-05-04 20:52 1.11031 103.88867 3764 ft 271 kts 19°
2026-05-04 20:52 1.12819 103.89465 3273 ft 271 kts 17°
2026-05-04 20:53 1.14601 103.90028 2897 ft 263 kts 17°
2026-05-04 20:53 1.16246 103.90554 2796 ft 234 kts 18°
2026-05-04 20:53 1.17716 103.91029 2698 ft 212 kts 18°
2026-05-04 20:53 1.19079 103.91473 2615 ft 200 kts 18°
2026-05-04 20:54 1.20347 103.91888 2538 ft 184 kts 18°
2026-05-04 20:54 1.21512 103.92228 2503 ft 165 kts 12°
2026-05-04 20:54 1.22547 103.92484 2501 ft 147 kts 21°
2026-05-04 20:54 1.23440 103.92879 2420 ft 136 kts 24°
2026-05-04 20:55 1.24302 103.93227 2258 ft 131 kts 20°
2026-05-04 20:55 1.25147 103.93539 2086 ft 128 kts 21°
2026-05-04 20:55 1.25971 103.93867 1926 ft 127 kts 23°
2026-05-04 20:55 1.26783 103.94209 1762 ft 127 kts 25°
2026-05-04 20:56 1.27591 103.94560 1608 ft 127 kts 24°
2026-05-04 20:56 1.28398 103.94905 1436 ft 126 kts 24°
2026-05-04 20:56 1.29205 103.95252 1249 ft 126 kts 24°
2026-05-04 20:56 1.30009 103.95598 1091 ft 126 kts 24°
2026-05-04 20:57 1.30809 103.95944 924 ft 125 kts 24°
2026-05-04 20:57 1.31608 103.96289 777 ft 124 kts 23°
2026-05-04 20:57 1.32393 103.96651 603 ft 124 kts 24°
2026-05-04 20:57 1.33172 103.97017 400 ft 123 kts 24°
2026-05-04 20:58 1.33955 103.97362 253 ft 123 kts 22°
2026-05-04 20:58 1.34745 103.97686 123 ft 124 kts 20°
2026-05-04 20:58 1.35531 103.98015 40 ft 117 kts 21°
2026-05-04 20:58 1.36184 103.98285 35 ft 86 kts 23°
2026-05-04 20:59 1.36614 103.98472 37 ft 30 kts 29°
2026-05-04 20:59 1.36724 103.98592 35 ft 11 kts 53°
2026-05-04 20:59 1.36731 103.98601 35 ft 4 kts 53°
2026-05-04 20:59 1.36778 103.98663 34 ft 18 kts 52°
2026-05-04 21:00 1.36837 103.98774 32 ft 17 kts 87°
2026-05-04 21:00 1.36800 103.98827 32 ft 0 kts 164°
2026-05-04 21:00 1.36785 103.98827 32 ft 6 kts 179°
2026-05-04 21:00 1.36736 103.98857 31 ft 10 kts 116°
2026-05-04 21:01 1.36718 103.98899 31 ft 0 kts 114°